Time,TemperatureF,DewpointF,PressureIn,WindDirection,WindDirectionDegrees,WindSpeedMPH,WindSpeedGustMPH,Humidity,HourlyPrecipIn,Conditions,Clouds,dailyrainin,SolarRadiationWatts/m^2,SoftwareType,DateUTC
2013-01-24 00:00:00,48.4,46.5,30.07,WNW,292,2.0,11.0,93,0.01,,CLR,0.00,0.00,VWS V14.01,2013-01-24 08:00:00,
2013-01-24 00:10:00,48.5,46.3,30.07,NNW,338,2.0,9.0,92,0.01,,CLR,0.00,0.00,VWS V14.01,2013-01-24 08:10:00,
2013-01-24 00:20:00,48.5,46.6,30.07,NW,315,1.0,6.0,93,0.01,,CLR,0.00,0.00,VWS V14.01,2013-01-24 08:20:00,
2013-01-24 00:30:00,48.5,46.3,30.07,West,270,0.0,4.0,92,0.00,,CLR,0.00,0.00,VWS V14.01,2013-01-24 08:30:00,
2013-01-24 00:40:00,48.6,46.7,30.06,NW,315,0.0,4.0,93,0.00,,CLR,0.00,0.00,VWS V14.01,2013-01-24 08:40:00,
2013-01-24 00:50:00,48.6,46.4,30.06,WNW,292,1.0,4.0,92,0.00,,CLR,0.00,0.00,VWS V14.01,2013-01-24 08:50:00,
2013-01-24 01:00:00,48.7,46.5,30.06,WNW,292,0.0,3.0,92,0.00,,CLR,0.00,0.00,VWS V14.01,2013-01-24 09:00:00,
2013-01-24 01:10:00,48.6,46.4,30.06,WNW,292,0.0,1.0,92,0.00,,CLR,0.00,0.00,VWS V14.01,2013-01-24 09:10:00,
2013-01-24 01:20:00,48.5,46.3,30.06,WNW,292,0.0,1.0,92,0.00,,CLR,0.00,0.00,VWS V14.01,2013-01-24 09:20:00,
2013-01-24 01:30:00,48.5,46.3,30.06,WNW,292,0.0,1.0,92,0.00,,CLR,0.00,0.00,VWS V14.01,2013-01-24 09:30:00,
2013-01-24 01:40:00,48.4,46.2,30.07,WNW,292,0.0,1.0,92,0.00,,CLR,0.00,0.00,VWS V14.01,2013-01-24 09:40:00,
2013-01-24 01:50:00,48.4,46.2,30.07,West,270,0.0,1.0,92,0.00,,CLR,0.00,0.00,VWS V14.01,2013-01-24 09:50:00,
2013-01-24 02:00:00,48.5,46.3,30.08,West,270,0.0,1.0,92,0.00,,CLR,0.00,0.00,VWS V14.01,2013-01-24 10:00:00,
2013-01-24 02:10:00,48.6,46.4,30.08,WNW,292,0.0,2.0,92,0.00,,CLR,0.00,0.00,VWS V14.01,2013-01-24 10:10:00,
2013-01-24 02:20:00,48.6,46.4,30.07,WNW,292,0.0,1.0,92,0.00,,CLR,0.00,0.00,VWS V14.01,2013-01-24 10:20:00,
2013-01-24 02:30:00,48.6,46.4,30.08,WNW,292,0.0,0.0,92,0.01,,CLR,0.01,0.00,VWS V14.01,2013-01-24 10:30:00,
2013-01-24 02:40:00,48.6,46.4,30.08,WNW,292,0.0,1.0,92,0.01,,CLR,0.01,0.00,VWS V14.01,2013-01-24 10:40:00,
2013-01-24 02:50:00,48.6,46.4,30.08,WNW,292,0.0,4.0,92,0.01,,CLR,0.01,0.00,VWS V14.01,2013-01-24 10:50:00,
2013-01-24 03:00:00,48.6,46.7,30.08,WNW,292,0.0,3.0,93,0.01,,CLR,0.01,0.00,VWS V14.01,2013-01-24 11:00:00,
2013-01-24 03:10:00,48.7,46.8,30.08,NNW,338,0.0,4.0,93,0.01,,CLR,0.01,0.00,VWS V14.01,2013-01-24 11:10:00,
2013-01-24 03:20:00,48.9,47.0,30.08,NNW,338,0.0,4.0,93,0.01,,CLR,0.01,0.00,VWS V14.01,2013-01-24 11:20:00,
2013-01-24 03:30:00,49.2,47.3,30.08,NW,315,1.0,4.0,93,0.01,,CLR,0.01,0.00,VWS V14.01,2013-01-24 11:30:00,
2013-01-24 03:40:00,49.4,47.5,30.08,NW,315,1.0,4.0,93,0.00,,CLR,0.01,0.00,VWS V14.01,2013-01-24 11:40:00,
2013-01-24 03:50:00,49.6,47.4,30.07,NNW,338,1.0,4.0,92,0.00,,CLR,0.01,0.00,VWS V14.01,2013-01-24 11:50:00,
2013-01-24 04:00:00,49.6,47.4,30.07,NNW,338,0.0,3.0,92,0.00,,CLR,0.01,0.00,VWS V14.01,2013-01-24 12:00:00,
2013-01-24 04:10:00,49.7,47.5,30.07,NW,315,1.0,5.0,92,0.00,,CLR,0.01,0.00,VWS V14.01,2013-01-24 12:10:00,
2013-01-24 04:20:00,49.5,47.3,30.07,WNW,292,1.0,4.0,92,0.00,,CLR,0.01,0.00,VWS V14.01,2013-01-24 12:20:00,
2013-01-24 04:30:00,49.4,47.2,30.07,WNW,292,1.0,4.0,92,0.01,,CLR,0.02,0.00,VWS V14.01,2013-01-24 12:30:00,
2013-01-24 04:40:00,49.6,47.4,30.08,NNW,338,0.0,4.0,92,0.01,,CLR,0.02,0.00,VWS V14.01,2013-01-24 12:40:00,
2013-01-24 04:50:00,49.6,47.4,30.07,NNW,338,0.0,1.0,92,0.01,,CLR,0.02,0.00,VWS V14.01,2013-01-24 12:50:00,
2013-01-24 05:00:00,49.3,47.1,30.08,NNW,338,0.0,3.0,92,0.01,,CLR,0.02,0.00,VWS V14.01,2013-01-24 13:00:00,
2013-01-24 05:18:00,49.2,47.0,30.08,NNW,329,0.0,1.0,92,0.01,,CLR,0.02,0.00,VWS V14.01,2013-01-24 13:18:00,
2013-01-24 05:28:00,49.5,47.3,30.09,NNW,329,0.0,3.0,92,0.01,,CLR,0.02,0.00,VWS V14.01,2013-01-24 13:28:00,
2013-01-24 05:38:00,49.9,47.7,30.09,NNW,329,0.0,1.0,92,0.00,,,0.02,0.00,VWS V14.01,2013-01-24 13:38:00,
2013-01-24 05:48:00,49.8,47.6,30.10,NNW,329,3.0,3.0,92,0.00,,,0.02,0.00,VWS V14.01,2013-01-24 13:48:00,
2013-01-24 05:58:00,49.7,47.5,30.10,South,173,0.0,5.0,92,0.00,,,0.02,0.00,VWS V14.01,2013-01-24 13:58:00,
2013-01-24 06:08:00,49.6,47.4,30.10,South,173,0.0,2.0,92,0.00,,,0.02,0.00,VWS V14.01,2013-01-24 14:08:00,
2013-01-24 06:18:00,49.6,47.4,30.10,NNW,342,3.0,5.0,92,0.00,,,0.02,0.00,VWS V14.01,2013-01-24 14:18:00,
2013-01-24 06:28:00,49.8,47.6,30.10,North,355,5.0,9.0,92,0.00,,,0.02,0.00,VWS V14.01,2013-01-24 14:28:00,
2013-01-24 06:38:00,49.8,47.6,30.10,NW,326,3.0,6.0,92,0.00,,,0.02,0.00,VWS V14.01,2013-01-24 14:38:00,
2013-01-24 06:48:00,49.7,47.5,30.10,NW,325,2.0,6.0,92,0.00,,,0.02,0.00,VWS V14.01,2013-01-24 14:48:00,
2013-01-24 06:58:00,49.7,47.5,30.10,NNW,330,1.0,4.0,92,0.00,,,0.02,0.00,VWS V14.01,2013-01-24 14:58:00,
2013-01-24 07:08:00,49.8,47.6,30.10,NW,304,2.0,6.0,92,0.00,,,0.02,0.00,VWS V14.01,2013-01-24 15:08:00,
2013-01-24 07:18:00,49.9,47.7,30.10,North,360,6.0,9.0,92,0.00,,,0.02,0.00,VWS V14.01,2013-01-24 15:18:00,
2013-01-24 07:28:00,50.1,47.9,30.10,NNE,14,5.0,9.0,92,0.01,,,0.03,0.00,VWS V14.01,2013-01-24 15:28:00,
2013-01-24 07:38:00,50.1,47.6,30.10,NNE,13,1.0,9.0,91,0.01,,,0.03,0.00,VWS V14.01,2013-01-24 15:38:00,
2013-01-24 07:48:00,50.0,47.5,30.10,NNW,348,5.0,13.0,91,0.01,,,0.03,7.00,VWS V14.01,2013-01-24 15:48:00,
2013-01-24 07:58:00,50.1,47.6,30.11,North,355,7.0,10.0,91,0.01,,,0.03,12.00,VWS V14.01,2013-01-24 15:58:00,
2013-01-24 08:08:00,50.1,47.6,30.11,NNE,21,4.0,12.0,91,0.01,,,0.03,23.00,VWS V14.01,2013-01-24 16:08:00,
2013-01-24 08:18:00,50.1,47.6,30.11,North,350,3.0,11.0,91,0.01,,,0.03,32.00,VWS V14.01,2013-01-24 16:18:00,
2013-01-24 08:28:00,50.1,47.6,30.11,NNW,342,3.0,11.0,91,0.01,,,0.03,40.00,VWS V14.01,2013-01-24 16:28:00,
2013-01-24 08:38:00,50.2,47.7,30.11,NNW,333,4.0,10.0,91,0.00,,,0.03,65.00,VWS V14.01,2013-01-24 16:38:00,
2013-01-24 08:48:00,50.4,47.9,30.12,WNW,302,2.0,11.0,91,0.00,,,0.03,67.00,VWS V14.01,2013-01-24 16:48:00,
2013-01-24 08:58:00,50.6,48.1,30.12,NNW,333,3.0,13.0,91,0.00,,,0.03,76.00,VWS V14.01,2013-01-24 16:58:00,
2013-01-24 09:08:00,50.7,47.9,30.12,NW,307,11.0,14.0,90,0.00,,,0.03,93.00,VWS V14.01,2013-01-24 17:08:00,
2013-01-24 09:18:00,50.9,48.1,30.12,NW,323,5.0,12.0,90,0.01,,,0.04,142.00,VWS V14.01,2013-01-24 17:18:00,
2013-01-24 09:28:00,51.2,48.4,30.12,NW,321,5.0,12.0,90,0.01,,,0.04,183.00,VWS V14.01,2013-01-24 17:28:00,
2013-01-24 09:38:00,51.5,48.7,30.12,NW,323,7.0,12.0,90,0.01,,,0.04,127.00,VWS V14.01,2013-01-24 17:38:00,
2013-01-24 09:48:00,51.7,48.9,30.12,NNW,344,4.0,11.0,90,0.01,,,0.04,200.00,VWS V14.01,2013-01-24 17:48:00,
2013-01-24 09:58:00,52.0,48.9,30.13,NW,322,0.0,12.0,89,0.01,,,0.04,162.00,VWS V14.01,2013-01-24 17:58:00,
2013-01-24 10:10:00,52.2,49.1,30.14,NW,315,6.0,13.0,89,0.01,,,0.04,184.00,VWS V14.01,2013-01-24 18:10:00,
2013-01-24 10:20:00,52.7,49.5,30.14,NNW,338,5.0,12.0,89,0.01,,,0.04,255.00,VWS V14.01,2013-01-24 18:20:00,
2013-01-24 10:30:00,53.4,49.9,30.14,NNW,338,4.0,12.0,88,0.00,,,0.04,251.00,VWS V14.01,2013-01-24 18:30:00,
2013-01-24 10:40:00,53.6,50.1,30.14,NW,315,5.0,11.0,88,0.00,,,0.04,191.00,VWS V14.01,2013-01-24 18:40:00,
2013-01-24 10:50:00,54.1,50.3,30.14,NNW,338,4.0,10.0,87,0.00,,,0.04,200.00,VWS V14.01,2013-01-24 18:50:00,
2013-01-24 11:00:00,54.5,50.7,30.14,NW,315,2.0,8.0,87,0.00,,,0.04,182.00,VWS V14.01,2013-01-24 19:00:00,
2013-01-24 11:10:00,54.8,50.7,30.14,North,0,2.0,8.0,86,0.00,,,0.04,181.00,VWS V14.01,2013-01-24 19:10:00,
2013-01-24 11:20:00,55.1,51.0,30.14,North,0,2.0,7.0,86,0.01,,,0.05,172.00,VWS V14.01,2013-01-24 19:20:00,
2013-01-24 11:30:00,55.4,51.3,30.14,North,0,1.0,6.0,86,0.01,,,0.05,166.00,VWS V14.01,2013-01-24 19:30:00,
2013-01-24 11:40:00,55.7,51.3,30.14,North,0,0.0,4.0,85,0.01,,,0.05,150.00,VWS V14.01,2013-01-24 19:40:00,
2013-01-24 11:50:00,56.1,51.3,30.14,ESE,112,0.0,5.0,84,0.01,,,0.05,142.00,VWS V14.01,2013-01-24 19:50:00,
2013-01-24 12:00:00,56.4,52.0,30.14,ESE,112,2.0,7.0,85,0.01,,,0.05,159.00,VWS V14.01,2013-01-24 20:00:00,
2013-01-24 12:10:00,56.5,51.7,30.14,SE,135,1.0,5.0,84,0.01,,,0.05,173.00,VWS V14.01,2013-01-24 20:10:00,
2013-01-24 12:20:00,56.4,51.6,30.13,SSE,158,0.0,3.0,84,0.01,,,0.05,193.00,VWS V14.01,2013-01-24 20:20:00,
2013-01-24 12:30:00,56.6,51.8,30.13,SSE,158,0.0,2.0,84,0.00,,,0.05,207.00,VWS V14.01,2013-01-24 20:30:00,
2013-01-24 12:40:00,56.6,51.5,30.13,South,180,1.0,3.0,83,0.00,,,0.05,232.00,VWS V14.01,2013-01-24 20:40:00,
2013-01-24 12:50:00,56.9,51.5,30.12,South,180,0.0,1.0,82,0.00,,,0.05,219.00,VWS V14.01,2013-01-24 20:50:00,
2013-01-24 13:00:00,57.1,52.0,30.12,South,180,0.0,2.0,83,0.00,,,0.05,205.00,VWS V14.01,2013-01-24 21:00:00,
2013-01-24 13:10:00,57.1,51.7,30.12,SSW,202,0.0,3.0,82,0.01,,,0.06,178.00,VWS V14.01,2013-01-24 21:10:00,
2013-01-24 13:20:00,57.3,51.9,30.12,SSW,202,0.0,1.0,82,0.01,,,0.06,162.00,VWS V14.01,2013-01-24 21:20:00,
2013-01-24 13:30:00,57.4,52.0,30.12,SSW,202,0.0,1.0,82,0.01,,,0.06,152.00,VWS V14.01,2013-01-24 21:30:00,
2013-01-24 13:40:00,57.7,52.2,30.12,SSW,202,0.0,1.0,82,0.01,,,0.06,142.00,VWS V14.01,2013-01-24 21:40:00,
2013-01-24 13:50:00,57.8,52.0,30.11,SSW,202,0.0,1.0,81,0.01,,,0.06,138.00,VWS V14.01,2013-01-24 21:50:00,
2013-01-24 14:00:00,57.8,52.0,30.11,SSW,202,0.0,1.0,81,0.01,,,0.06,131.00,VWS V14.01,2013-01-24 22:00:00,
2013-01-24 14:10:00,57.8,52.0,30.11,SSW,202,0.0,1.0,81,0.02,,,0.07,125.00,VWS V14.01,2013-01-24 22:10:00,
2013-01-24 14:20:00,57.8,52.3,30.11,SSW,202,0.0,1.0,82,0.01,,,0.07,123.00,VWS V14.01,2013-01-24 22:20:00,
2013-01-24 14:30:00,57.9,52.5,30.11,SSW,202,0.0,1.0,82,0.01,,,0.07,123.00,VWS V14.01,2013-01-24 22:30:00,
2013-01-24 14:40:00,58.0,52.5,30.11,SSW,202,0.0,0.0,82,0.01,,,0.07,124.00,VWS V14.01,2013-01-24 22:40:00,
2013-01-24 14:50:00,58.2,52.7,30.11,SSW,202,0.0,0.0,82,0.02,,,0.08,121.00,VWS V14.01,2013-01-24 22:50:00,
2013-01-24 15:00:00,58.3,52.8,30.11,SSW,202,0.0,1.0,82,0.02,,,0.08,117.00,VWS V14.01,2013-01-24 23:00:00,
2013-01-24 15:10:00,58.6,53.1,30.11,SSW,202,0.0,1.0,82,0.02,,,0.08,120.00,VWS V14.01,2013-01-24 23:10:00,
2013-01-24 15:20:00,58.8,53.3,30.10,SSW,202,0.0,2.0,82,0.01,,,0.08,125.00,VWS V14.01,2013-01-24 23:20:00,
2013-01-24 15:30:00,59.0,53.2,30.10,SSW,202,0.0,2.0,81,0.01,,,0.08,134.00,VWS V14.01,2013-01-24 23:30:00,
2013-01-24 15:40:00,59.0,53.2,30.11,NNE,22,1.0,4.0,81,0.01,,,0.08,124.00,VWS V14.01,2013-01-24 23:40:00,
2013-01-24 15:50:00,59.0,53.2,30.10,North,0,0.0,3.0,81,0.01,,,0.08,96.00,VWS V14.01,2013-01-24 23:50:00,
2013-01-24 16:00:00,59.0,53.2,30.10,North,0,0.0,1.0,81,0.00,,,0.08,81.00,VWS V14.01,2013-01-25 00:00:00,
2013-01-24 16:10:00,59.0,53.2,30.10,NNW,338,0.0,2.0,81,0.00,,,0.08,68.00,VWS V14.01,2013-01-25 00:10:00,
2013-01-24 16:20:00,58.8,53.3,30.11,NNW,338,0.0,1.0,82,0.00,,,0.08,51.00,VWS V14.01,2013-01-25 00:20:00,
2013-01-24 16:30:00,58.6,53.1,30.11,NNW,338,0.0,1.0,82,0.01,,,0.09,39.00,VWS V14.01,2013-01-25 00:30:00,
2013-01-24 16:40:00,58.4,53.3,30.11,NNW,338,0.0,0.0,83,0.01,,,0.09,41.00,VWS V14.01,2013-01-25 00:40:00,
2013-01-24 16:50:00,58.3,53.5,30.11,NNW,338,0.0,0.0,84,0.01,,,0.09,47.00,VWS V14.01,2013-01-25 00:50:00,
2013-01-24 17:00:00,58.0,53.2,30.11,NNW,338,0.0,1.0,84,0.01,,,0.09,27.00,VWS V14.01,2013-01-25 01:00:00,
2013-01-24 17:10:00,57.7,52.9,30.11,NNW,338,0.0,1.0,84,0.01,,,0.09,16.00,VWS V14.01,2013-01-25 01:10:00,
2013-01-24 17:20:00,57.5,53.0,30.12,North,0,0.0,1.0,85,0.01,,,0.09,8.00,VWS V14.01,2013-01-25 01:20:00,
2013-01-24 17:30:00,57.2,52.7,30.12,North,0,0.0,1.0,85,0.01,,,0.09,0.00,VWS V14.01,2013-01-25 01:30:00,
2013-01-24 17:40:00,57.0,52.9,30.12,North,0,0.0,1.0,86,0.00,,,0.09,0.00,VWS V14.01,2013-01-25 01:40:00,
2013-01-24 17:50:00,56.7,52.6,30.13,North,0,0.0,0.0,86,0.00,,,0.09,0.00,VWS V14.01,2013-01-25 01:50:00,
2013-01-24 18:00:00,56.5,52.7,30.13,North,0,0.0,2.0,87,0.00,,,0.09,0.00,VWS V14.01,2013-01-25 02:00:00,
2013-01-24 18:10:00,56.5,52.4,30.14,North,0,0.0,1.0,86,0.00,,,0.09,0.00,VWS V14.01,2013-01-25 02:10:00,
2013-01-24 18:20:00,56.3,52.5,30.14,North,0,0.0,0.0,87,0.00,,,0.09,0.00,VWS V14.01,2013-01-25 02:20:00,
2013-01-24 18:30:00,56.1,52.3,30.14,North,0,0.0,2.0,87,0.00,,,0.09,0.00,VWS V14.01,2013-01-25 02:30:00,
2013-01-24 18:40:00,55.8,52.0,30.15,North,0,0.0,0.0,87,0.01,,,0.10,0.00,VWS V14.01,2013-01-25 02:40:00,
2013-01-24 18:50:00,55.5,51.7,30.15,North,0,0.0,0.0,87,0.01,,,0.10,0.00,VWS V14.01,2013-01-25 02:50:00,
2013-01-24 19:00:00,55.3,51.8,30.16,North,0,0.0,4.0,88,0.01,,,0.10,0.00,VWS V14.01,2013-01-25 03:00:00,
2013-01-24 19:10:00,55.6,52.4,30.16,ESE,112,1.0,4.0,89,0.01,,,0.10,0.00,VWS V14.01,2013-01-25 03:10:00,
2013-01-24 19:20:00,55.7,52.5,30.16,ESE,112,0.0,2.0,89,0.01,,,0.10,0.00,VWS V14.01,2013-01-25 03:20:00,
2013-01-24 19:30:00,55.7,52.5,30.16,ESE,112,0.0,0.0,89,0.01,,,0.10,0.00,VWS V14.01,2013-01-25 03:30:00,
2013-01-24 19:40:00,55.4,52.2,30.16,ESE,112,0.0,1.0,89,0.01,,,0.10,0.00,VWS V14.01,2013-01-25 03:40:00,
2013-01-24 19:50:00,55.3,52.1,30.16,ESE,112,0.0,0.0,89,0.00,,,0.10,0.00,VWS V14.01,2013-01-25 03:50:00,
2013-01-24 20:00:00,54.9,51.7,30.16,ESE,112,0.0,0.0,89,0.00,,,0.10,0.00,VWS V14.01,2013-01-25 04:00:00,
2013-01-24 20:10:00,54.8,51.9,30.16,ESE,112,0.0,1.0,90,0.00,,,0.10,0.00,VWS V14.01,2013-01-25 04:10:00,
2013-01-24 20:20:00,54.7,51.8,30.16,ESE,112,0.0,2.0,90,0.00,,,0.10,0.00,VWS V14.01,2013-01-25 04:20:00,
2013-01-24 20:30:00,54.6,51.7,30.17,ESE,112,0.0,1.0,90,0.00,,,0.10,0.00,VWS V14.01,2013-01-25 04:30:00,
2013-01-24 20:40:00,54.7,52.1,30.16,ESE,112,0.0,0.0,91,0.00,,,0.10,0.00,VWS V14.01,2013-01-25 04:40:00,
2013-01-24 20:50:00,54.7,51.8,30.16,ESE,112,0.0,2.0,90,0.00,,,0.10,0.00,VWS V14.01,2013-01-25 04:50:00,
2013-01-24 21:00:00,54.6,51.7,30.16,ESE,112,0.0,1.0,90,0.00,,,0.10,0.00,VWS V14.01,2013-01-25 05:00:00,
2013-01-24 21:10:00,54.2,51.3,30.17,ESE,112,0.0,0.0,90,0.00,,,0.10,0.00,VWS V14.01,2013-01-25 05:10:00,
2013-01-24 21:20:00,54.1,51.2,30.17,ESE,112,0.0,1.0,90,0.00,,,0.10,0.00,VWS V14.01,2013-01-25 05:20:00,
2013-01-24 21:30:00,54.0,51.4,30.17,ESE,112,1.0,2.0,91,0.00,,,0.10,0.00,VWS V14.01,2013-01-25 05:30:00,
2013-01-24 21:40:00,53.9,51.3,30.17,ESE,112,0.0,3.0,91,0.00,,,0.10,0.00,VWS V14.01,2013-01-25 05:40:00,
2013-01-24 21:50:00,53.7,50.8,30.17,ESE,112,0.0,0.0,90,0.00,,,0.10,0.00,VWS V14.01,2013-01-25 05:50:00,
2013-01-24 22:00:00,53.7,51.1,30.17,ESE,112,0.0,1.0,91,0.00,,,0.10,0.00,VWS V14.01,2013-01-25 06:00:00,
2013-01-24 22:10:00,53.6,51.0,30.17,ESE,112,0.0,1.0,91,0.00,,,0.10,0.00,VWS V14.01,2013-01-25 06:10:00,
2013-01-24 22:20:00,53.3,50.7,30.17,ESE,112,0.0,0.0,91,0.00,,,0.10,0.00,VWS V14.01,2013-01-25 06:20:00,
2013-01-24 22:30:00,53.2,50.7,30.17,ESE,112,0.0,2.0,91,0.00,,,0.10,0.00,VWS V14.01,2013-01-25 06:30:00,
2013-01-24 22:40:00,53.0,50.5,30.17,ESE,112,0.0,0.0,91,0.00,,,0.10,0.00,VWS V14.01,2013-01-25 06:40:00,
2013-01-24 22:50:00,53.3,50.7,30.17,ESE,112,0.0,1.0,91,0.00,,,0.10,0.00,VWS V14.01,2013-01-25 06:50:00,
2013-01-24 23:00:00,53.0,50.5,30.17,ESE,112,0.0,1.0,91,0.00,,,0.10,0.00,VWS V14.01,2013-01-25 07:00:00,
2013-01-24 23:10:00,52.6,50.0,30.17,ESE,112,0.0,2.0,91,0.00,,,0.10,0.00,VWS V14.01,2013-01-25 07:10:00,
2013-01-24 23:20:00,52.1,49.6,30.17,ESE,112,0.0,1.0,91,0.00,,,0.10,0.00,VWS V14.01,2013-01-25 07:20:00,
2013-01-24 23:30:00,51.4,48.9,30.18,ESE,112,0.0,2.0,91,0.00,,,0.10,0.00,VWS V14.01,2013-01-25 07:30:00,
2013-01-24 23:40:00,51.6,49.4,30.19,ESE,112,0.0,1.0,92,0.00,,,0.10,0.00,VWS V14.01,2013-01-25 07:40:00,
2013-01-24 23:50:00,52.2,50.0,30.19,NE,45,1.0,4.0,92,0.00,,,0.10,0.00,VWS V14.01,2013-01-25 07:50:00,